Regional Weather Roundup
Issued by NWS Northern Indiana

Home | Current Version | Previous Version | Graphics & Text | Print | Product List | Glossary On
Versions: 1 2 3 4 5 6 7 8 9 10 11 12 13 14 15 16 17 18 19 20 21 22 23 24 25 26 27 28 29 30 31 32 33 34 35 36 37 38 39 40 41 42 43 44 45 46 47 48 49 50
000
ASUS43 KIWX 231110
RWRIWX

KIWX WEATHER ROUNDUP
NATIONAL WEATHER SERVICE NORTHERN INDIANA
700 AM EDT FRI JUN 23 2017

NOTE: "FAIR" INDICATES FEW OR NO CLOUDS BELOW 12,000 FEET WITH NO
SIGNIFICANT WEATHER AND/OR OBSTRUCTIONS TO VISIBILITY.

* THESE STATIONS ARE NOT UNDER NWS QUALITY CONTROL. THEY ALSO MAY NOT
  REPORT WEATHER SUCH AS PRECIPITATION OR FOG.

INZ001>027-231200-
NORTHERN INDIANA

CITY           SKY/WX    TMP DP  RH WIND       PRES   REMARKS
GARY*          RAIN      68  64  88 N17G29    29.69R VSB 1
VALPARAISO     CLOUDY    75  73  93 W9        29.66F
MICHIGAN CITY* RAIN      70  68  94 NW12G35   29.69R
LAPORTE*       DRIZZLE   72  71  97 W7        29.66F
KNOX*          CLOUDY    72  72 100 W6        29.64F
SOUTH BEND     LGT RAIN  72  72 100 SW9       29.64F FOG
ELKHART*       DRIZZLE   72  70  94 SW9       29.64
GOSHEN         CLOUDY    72  69  90 SW8       29.65F
MONTICELLO*    HVY RAIN  71  69  96 W20G30    29.68R
LOGANSPORT*    RAIN      70  70 100 W13G21    29.68S
ROCHESTER*     CLOUDY    73  73 100 CALM      29.66F
WARSAW*        CLOUDY    72  70  94 SW5       29.67F FOG
AUBURN*        LGT RAIN  72  70  94 SW6       29.68S
FORT WAYNE     TSTM      73  70  90 SW13      29.68F
HUNTINGTON*    TSTM      69  67  95 W12       29.70R
PERU/GRISSOM   TSTM      72  72 100 W17       29.67F VSB 1/4

$$
INZ028>050-231200-
CENTRAL INDIANA

CITY           SKY/WX    TMP DP  RH WIND       PRES   REMARKS
LAFAYETTE      CLOUDY    74  74 100 SW8G17    29.67S
KOKOMO*        CLOUDY    75  72  90 SW16      29.69F
MUNCIE*        TSTM      73  70  90 W13G30    29.71F VSB 1/2
INDIANAPOLIS   CLOUDY    76  72  87 SW18      29.71S

$$
MIZ043>046-050>051-056>058-064>065-071>073-077>080-231200-
SOUTHWEST LOWER MICHIGAN

CITY           SKY/WX    TMP DP  RH WIND       PRES   REMARKS
BATTLE CREEK   CLOUDY    71  71 100 SW9       29.63F FOG
BENTON HARBOR  LGT RAIN  69  66  90 W13       29.65R
COLDWATER*     DRIZZLE   71  71 100 SW7       29.64F
HILLSDALE*     CLOUDY    70  68  94 SW7       29.66F FOG
HOLLAND        CLOUDY    68  66  93 VRB6G17   29.62F
GRAND RAPIDS   LGT RAIN  69  69 100 N18       29.63R FOG
KALAMAZOO      CLOUDY    72  69  90 SW9       29.62F
STURGIS*       CLOUDY    70  70  99 SW7       29.64F FOG
THREE RIVERS*  CLOUDY    71  71  99 NW3       29.64F

$$
OHZ001>008-015>018-024>025-231200-
NORTHWEST OHIO

CITY           SKY/WX    TMP DP  RH WIND       PRES   REMARKS
WAUSEON*       CLOUDY    72  72 100 SW9       29.66F
DEFIANCE       TSTM      71  69  93 SW10      29.67F FOG
FINDLAY        CLOUDY    73  69  87 SW15      29.69S
TOLEDO EXPRESS RAIN      70  70 100 SW8       29.66F FOG
TOLEDO METCALF LGT RAIN  71  71 100 SW9       29.67F FOG
LIMA           CLOUDY    73  72  96 SW12      29.71F

$$
AND FOR LAKE MICHIGAN COASTAL AND OPEN LAKE BUOY OBSERVATIONS

STATION/POSITION TEMP    WIND        PRES    VSBY  WAVE
                 AIR SEA DIR/SP/G                  HT/PER
                 (F)     (DEG/KT/KT) (MB)    (MI)  (FT/S)
CALUMET HARBOR    66     290/ 11/ 18 1005.2R
MICHIGAN CITY     72     230/ 16/ 17   N/A
BURNS HARBOR      73     250/  9/ 13 1004.7S
SOUTH LAKE BUOY   62 61  360/ 10/ 12 1003.7F         2/ 4
4 MI NW BRIDGMAN  68 69  320/ 16/ 21 1004.4          2/ 3
MICHIGAN CITY     66 68  330/ 14/ 19   N/A           1/ 2

$$
&&



USA.gov is the U.S. government's official web portal to all federal, state and local government web resources and services.